Reflectivity
4 14 1 -20 -5 11 8 12 11 10 -4 -12 -20 -20 -20 -20 -20 -20 -20 -20 -20 -20 -20 -20 -20 -20 -20 -20 -20 -20 -20 -20 -20 -20 -20 -20 -20 -20 -20 -20 -20 -20 -20 -20 -20 -20 -20 -20 -20 -20 -20 -20 -20 -20
-20 -20 -20 -2 7 -0 7 -1 9 15 12 11 0 -20 -20 -20 -20 -20 -20 -20 -20 -20 -20 -20 -20 -20 -20 -20 -20 -20 -20 -20 -20 -20 -20 -20 -20 -20 -20 -20 -20 -20 -20 -20 -20 -20 -20 -20 -20 -20 -20 -20 -20 -20
19 11 13 6 8 9 -15 6 9 6 23 7 9 8 7 2 -15 -20 -20 -20 -20 -20 -20 -20 -20 -20 -20 -20 -20 -20 -20 -20 -20 -20 -20 -20 -20 -20 -20 -20 -20 -20 -20 -20 -20 -20 -20 -20 -20 -20 -20 -20 -20 -20
20 21 13 18 17 14 6 -8 9 6 6 6 10 9 9 7 9 1 -20 -20 -20 -20 -20 -20 -20 -20 -20 -20 -20 -20 -20 -20 -20 -20 -20 -20 -20 -20 -20 -20 -20 -20 -20 -20 -20 -20 -20 -20 -20 -20 -20 -20 -20 -20
-17 9 17 21 20 16 11 2 -12 -14 10 6 7 8 -20 -13 14 2 -20 -20 -20 -20 -7 -20 -20 -20 -20 -20 -20 -20 -20 -20 -20 -20 -20 -20 -20 -14 -20 -20 -20 -20 -20 -20 -20 -20 -20 -20 -20 -20 -20 -20 -20 -20
-5 -20 -5 11 17 23 23 22 16 10 -11 -13 -13 -20 -20 13 6 -20 -10 -20 -11 8 -9 -19 -20 -20 -20 -20 -20 -20 -20 -20 -20 -20 -20 -20 -2 9 3 -17 -20 -20 -20 -20 -20 -20 -20 -20 -20 -20 -19 -20 -20 -20
-19 -20 -16 -19 17 10 12 16 20 24 21 14 10 11 5 -17 -17 -4 -20 2 17 17 23 1 -17 -20 -20 -20 -20 -20 -20 -20 -20 -5 7 7 12 21 23 -6 -20 -20 -20 -20 -20 -20 -20 -20 -20 -20 -20 -20 -20 -20
-3 14 -20 4 5 4 -9 14 19 20 21 23 22 25 17 13 -8 -20 1 8 26 33 27 8 -17 -20 -20 -20 -20 -20 -20 -20 1 -9 -8 -6 -12 2 -5 -18 -20 -20 -20 -20 -20 -20 -20 -20 -20 -20 -19 -19 -20 -20
-19 -15 -12 1 -19 9 10 10 13 18 21 21 16 4 11 11 -6 -8 19 12 12 15 8 -8 -20 -20 -20 -20 -20 -20 -20 -20 -20 -18 -18 -20 -20 -10 -20 -20 -20 -20 -20 -20 -20 -20 -20 -20 -20 -20 -20 -20 -20 -20
-20 -20 -20 -20 13 12 4 15 12 20 23 23 23 20 -0 9 5 19 23 13 25 21 20 5 -20 -19 -20 -20 -20 -19 -8 -20 -20 -20 -13 -15 -20 -20 -20 -20 -20 -20 -20 -20 -20 -20 -20 -20 -20 -20 -20 -20 -20 -20
-20 -20 -19 -17 15 -2 7 12 21 28 28 26 16 9 8 19 19 21 26 18 -6 13 10 -17 -20 -20 -20 -7 -8 0 -19 -20 -20 -20 -20 -20 -20 -20 -20 -20 -20 -20 -20 -20 -20 -20 -20 -13 -9 -19 -20 -20 -20 -20
-20 -20 5 5 -20 -0 21 15 20 23 10 20 26 16 12 15 16 16 -10 -17 -4 -20 -19 -20 -18 -11 -14 -20 -6 17 5 5 -14 -20 -18 -20 -20 -20 -20 -20 -20 -20 -4 14 20 12 10 13 0 -20 -20 -20 -20 -20
-20 -20 -20 -13 22 1 16 -11 24 26 26 16 31 22 6 -4 16 5 -20 -20 -5 0 22 7 -1 -18 12 -10 17 13 15 2 -4 4 -18 -20 -20 -20 -20 -14 12 -16 8 16 9 11 -11 -13 -20 -20 2 -9 -20 -20
18 -20 -20 -20 -20 19 17 21 23 24 27 28 9 15 7 -20 -11 -20 -20 -20 -20 17 14 8 -12 2 17 9 -14 4 -16 -20 -20 -20 -20 -19 -7 6 31 33 26 15 7 5 5 -19 -6 -19 -20 -20 -20 -20 -20 -20
17 -5 -6 -20 -20 7 18 22 27 31 33 22 17 20 -5 -20 -20 -20 -20 -20 -20 -20 -20 -20 -20 -20 -20 -20 -20 -20 -15 -13 -0 -15 -4 -8 -7 -19 -20 -20 -20 -20 -20 -20 -20 -20 -20 -20 -20 -20 -20 -20 -20 -20
-19 11 -9 -20 -20 -20 -4 19 18 40 29 20 18 12 -20 -20 -20 -20 -20 -20 -20 -20 -20 -20 -20 -20 -20 -20 -20 -20 -20 -20 -20 -20 -20 -20 -20 -20 -20 -20 -20 -20 -20 -20 -20 -20 -20 -20 -20 -20 -20 -20 -20 -20
-11 -17 -20 -20 -20 -20 23 23 24 22 28 24 3 -20 -20 -20 -20 -20 -20 -20 -20 -20 -12 0 3 11 4 -4 -20 -20 -20 -20 -20 -20 -20 -20 -20 -20 -20 -20 -20 -20 -20 -20 -20 -20 -20 -20 -20 -20 -20 -20 -20 -20
4 -20 12 17 3 1 20 17 20 11 11 19 10 -16 -19 -20 -20 -20 -20 -20 -4 14 20 17 12 18 6 -20 -20 -20 -20 -20 -20 -20 -20 -20 -20 -20 -20 -20 -20 -20 -20 -20 -20 -20 -20 -20 -20 -20 -20 -20 -20 -20
-20 -20 15 18 22 28 11 4 3 13 -20 -20 -17 -9 -11 1 -1 -16 -6 5 4 21 17 3 8 1 -20 -20 -20 -20 -20 -20 -20 -20 -20 -20 -20 -20 -20 -20 -20 -20 -20 -20 -20 -20 -20 -20 -20 -20 -20 -20 -20 -20
-3 20 20 21 23 15 21 20 20 -18 -20 -20 -20 -20 -20 -20 -20 -20 -20 -20 -20 14 6 -20 -20 -20 -20 -20 -20 -20 -20 -20 -20 -20 -20 -20 -20 -20 -20 -20 -20 -20 -20 -20 -20 -20 -20 -20 -20 -20 -20 -20 -20 -20
8 -11 17 24 35 26 4 16 5 -19 -20 -20 -20 -20 -20 -20 -20 -20 -20 -20 -20 -20 -20 -20 -20 -20 -20 -20 -20 -20 -20 -20 -20 -20 -20 -20 -20 -20 -20 -20 -20 -20 -20 -20 -20 -20 -20 -20 -20 -20 -20 -20 -20 -20
-20 12 7 15 22 19 13 -5 -20 -20 -20 -20 -20 -20 -20 -20 -20 -20 -20 -20 -20 -20 -20 -20 -20 -20 -20 -20 -20 -20 -20 -20 -20 -20 -20 -20 -20 -20 -20 -20 -20 -20 -20 -20 -20 -20 -20 -20 -20 -20 -20 -20 -20 -20
11 -15 9 -7 12 -2 -7 -1 7 -17 1 -4 -19 -20 -20 -20 -20 -20 -20 -20 -20 -20 -20 -20 -20 -20 -20 -20 -20 -20 -20 -20 -20 -20 -20 -20 -20 -20 -20 -20 -20 -20 -20 -20 -20 -20 -20 -20 -20 -20 -20 -20 -20 -20
19 -8 23 18 -3 -15 -17 -20 -20 -20 -20 -20 -20 -20 -20 -20 -20 -20 -20 -20 -20 -20 -20 -20 -20 -20 -20 -20 -20 -20 -20 -20 -20 -20 -20 -20 -20 -20 -20 -20 -20 -20 -20 -20 -20 -20 -20 -20 -20 -20 -20 -20 -20 -20
2 -20 -20 -6 14 -11 -20 -20 -20 -20 -20 -20 -20 -20 -20 -20 -20 -20 -20 -20 -20 -20 -20 -20 -20 -20 -20 -20 -20 -20 -20 -20 -20 -20 -20 -20 -20 -20 -20 -20 -20 -20 -20 -20 -20 -20 -20 -20 -20 -20 -20 -11 -20 -19
0 -20 -20 -20 -20 -20 -20 -20 -20 -20 -20 -20 -20 -20 -20 -20 -20 -20 -20 -20 -20 -20 -20 -20 -20 -20 -20 -20 -20 -20 -20 -20 -20 -20 -20 -20 -20 -20 -20 -20 -20 -20 -20 -20 -12 1 -0 -12 -11 -20 -20 -20 -6 1
-20 -20 -20 -20 -20 -20 -20 -20 -20 -20 -20 -20 -20 -20 -20 -20 -20 -20 -20 -20 -20 -20 -20 -20 -20 -20 -20 -20 -20 -20 -20 -20 -20 -20 -20 -20 -20 -20 -20 -20 -20 -19 -20 -20 -13 -2 10 6 -6 -16 -20 -20 -20 -20
-20 -20 -20 -20 -20 -20 -20 -20 -20 -20 -20 -20 -20 -20 -20 -20 -20 -20 -20 -20 -20 -20 -20 -20 -20 -20 -20 -20 -20 -20 -20 -20 -20 -20 -20 -20 -20 -20 -18 -7 -6 -18 -9 -20 -20 -4 6 5 3 -17 -20 -20 -20 -20
-19 -20 -20 -20 -20 -20 -20 -20 -20 -20 -20 -20 -20 -20 -20 -20 -19 1 8 -2 -18 -20 -20 -20 -20 -20 -20 -20 -20 -20 -20 -20 -20 -20 -20 -20 -20 -20 -20 -20 -20 -1 10 14 9 11 10 13 18 18 17 14 4 0
-20 -20 -20 -20 -20 -20 -20 -20 -20 -20 -20 -20 -20 -20 -20 -20 -20 -20 -20 -20 -20 -20 -20 -20 -20 -20 -20 -20 -20 -20 -20 -20 -20 -20 -20 -13 -17 -19 -20 -20 -20 -20 -20 -20 -20 -20 -20 -20 -20 -20 -8 -20 -20 -20
-20 -20 -20 -20 -20 -20 -20 -20 -20 -20 -20 -20 -20 -20 -20 -19 -20 -20 -20 -20 -20 -20 -20 -20 -20 -20 -20 -20 -20 -20 -20 -20 -20 -13 -1 7 -4 -19 -20 -20 -20 -18 -20 -20 -20 -20 -20 -20 -20 -20 -20 -20 -20 -20
-20 -20 -20 -20 -20 -20 -20 -20 -20 -20 -20 -20 -20 -20 -20 -20 -20 -20 -20 -20 -20 -20 -20 -20 -20 -20 -20 -20 -20 -19 6 1 -19 -20 -20 -20 -20 -20 -20 -20 -20 -20 -20 -20 -20 -17 -20 -20 -20 -20 -20 -20 -20 -20
-20 -20 -20 -20 -20 -20 -20 -20 -20 -20 -20 -20 -20 -19 -20 -20 -20 -20 -20 -20 -20 -20 -20 -20 -20 -20 -20 -20 -20 -20 -20 -20 -20 -6 -20 -2 2 3 -9 -20 -20 -20 -19 -15 -20 -20 -20 -20 -20 -20 -20 -20 -20 -20
Wind_Speed
11 11 11 10 9 10 10 10 11 11 11 8 6 7 6 7 8 5 2 4 2 1 5 3 3 4 0 2 5 4 4 0 2 4 4 5 5 6 3 6 8 10 9 6 5 5 13 8 4 7 7 4 3 5
11 9 9 10 10 10 11 9 11 13 12 10 6 4 3 4 5 3 1 1 2 1 6 2 5 4 3 4 5 5 5 5 6 3 3 2 4 3 5 5 4 4 10 8 15 11 3 7 6 7 4 4 6 5
17 16 14 9 5 5 6 7 8 10 8 6 5 4 4 4 3 2 1 2 2 2 6 3 5 5 3 7 4 4 3 6 5 5 5 4 5 4 5 7 5 4 7 7 1 7 15 8 8 6 7 8 9 5
13 14 16 16 13 8 6 5 6 5 4 2 1 1 2 4 5 4 2 2 3 0 4 7 2 4 4 3 7 7 1 4 3 3 3 4 3 4 4 6 5 5 3 10 9 12 12 12 8 9 7 2 5 6
10 10 10 12 15 16 14 8 6 5 4 3 2 2 2 3 4 3 3 4 3 5 3 6 8 9 6 6 8 5 5 4 1 1 3 4 2 1 3 3 12 9 19 16 18 14 13 16 14 11 9 10 11 8
9 10 7 8 9 9 12 15 15 7 3 2 2 1 1 3 2 2 3 1 5 4 2 4 5 3 5 3 6 4 4 3 4 4 4 4 3 3 5 10 9 15 13 19 23 17 13 14 9 14 16 19 11 9
9 8 11 13 9 6 9 10 11 13 11 9 5 2 2 3 1 3 2 1 2 3 2 4 4 2 0 2 3 1 0 2 3 3 5 4 4 5 4 18 11 11 12 17 20 20 20 16 14 14 9 4 4 4
13 12 8 10 12 11 8 8 8 9 10 9 6 7 7 6 4 4 3 6 6 2 2 3 4 3 4 2 2 1 1 0 3 3 1 3 1 3 9 10 6 12 15 14 15 10 9 3 4 4 4 4 5 5
13 13 13 12 9 12 11 10 11 10 9 9 8 10 3 3 2 3 2 2 2 3 3 3 3 4 2 1 2 1 2 3 3 4 4 5 4 10 7 6 8 8 6 7 5 3 2 7 8 9 7 7 7 8
13 13 15 14 15 12 9 13 13 12 8 6 2 1 3 4 4 4 1 2 5 4 4 4 2 3 4 2 3 2 3 4 4 6 4 5 9 14 9 8 6 5 6 7 3 5 8 6 6 6 6 5 5 6
14 15 13 14 14 13 15 14 15 11 4 1 2 4 4 1 1 3 3 5 3 4 5 4 8 6 3 3 4 4 3 3 4 5 7 4 5 4 6 6 6 8 9 10 8 6 5 3 4 5 6 9 9 11
13 15 17 14 14 15 14 14 13 5 4 3 2 4 3 3 3 3 4 3 6 6 3 3 3 4 2 1 3 3 3 4 7 4 3 4 4 2 6 7 8 8 9 10 9 8 10 10 8 7 8 10 10 10
16 14 16 19 15 14 16 14 14 12 5 2 3 3 2 3 6 7 6 4 3 2 1 1 1 1 0 2 3 4 7 6 2 4 4 4 2 4 5 5 4 8 10 8 10 12 9 9 8 8 11 11 12 11
17 16 17 18 18 15 13 17 15 9 3 4 5 6 6 4 5 5 5 4 3 2 2 1 0 1 0 2 2 5 6 2 3 3 6 1 2 4 2 5 10 10 10 10 12 12 9 9 11 11 12 13 10 13
18 18 18 18 18 19 16 16 13 4 4 5 4 6 7 4 2 3 2 2 2 2 1 1 1 2 2 3 3 3 7 4 4 4 2 5 8 8 9 10 10 10 9 9 11 9 10 9 9 12 13 12 13 13
18 18 13 17 17 18 18 11 2 2 4 5 5 2 3 3 4 1 2 3 3 3 1 1 2 2 6 3 3 7 5 6 5 4 4 3 7 9 10 11 10 11 13 13 12 11 11 11 12 14 12 10 11 9
19 6 9 16 16 15 16 2 2 5 5 6 6 4 4 2 6 5 4 4 5 5 4 3 5 10 2 1 4 4 6 6 5 5 4 5 11 15 14 12 12 12 13 14 13 13 14 15 14 11 13 17 12 12
9 5 13 16 14 5 0 3 3 4 4 2 2 1 3 3 3 3 4 4 5 4 3 6 3 6 5 5 5 6 5 8 10 11 12 13 13 12 11 13 13 14 15 14 13 15 14 13 12 12 13 14 10 13
7 6 14 16 4 2 4 4 3 4 7 3 2 2 4 3 4 4 4 5 3 2 2 2 4 4 5 5 9 11 10 9 11 11 9 11 12 13 13 13 13 13 12 13 13 11 11 14 13 11 11 8 9 11
16 17 16 14 9 3 3 4 3 4 2 4 1 2 4 4 3 3 4 3 3 1 1 3 7 11 12 14 13 13 12 11 9 11 12 11 10 11 11 11 11 13 11 13 11 14 10 11 11 9 8 10 9 11
4 3 6 5 3 4 2 3 2 4 2 2 3 2 3 3 2 3 5 3 3 4 4 7 10 12 14 13 12 11 11 10 10 11 14 13 12 12 12 12 12 10 10 10 11 13 18 12 12 11 10 11 11 10
4 6 2 3 3 4 4 2 4 2 2 3 1 2 0 2 4 5 3 3 5 8 6 9 12 12 13 15 14 13 12 13 14 12 18 17 13 12 12 11 9 11 11 12 12 12 12 12 11 11 10 11 14 11
6 4 2 4 6 6 5 4 3 5 5 3 1 2 4 3 5 2 2 4 6 6 9 10 15 15 12 15 13 12 14 16 13 12 12 12 12 12 11 11 11 11 13 15 10 10 11 18 16 14 12 12 10 10
5 2 3 4 4 5 2 3 1 2 2 1 3 4 5 6 0 3 5 4 9 8 10 12 8 9 9 9 9 12 12 11 11 10 11 11 11 13 12 12 12 13 13 11 10 12 13 13 18 12 12 12 11 11
4 6 4 4 2 3 4 3 2 3 5 5 4 5 6 3 3 3 6 6 8 10 10 10 7 9 10 12 11 11 14 9 10 12 14 10 11 11 12 12 12 13 9 9 12 13 13 12 12 13 14 12 13 13
6 7 9 7 3 5 5 4 7 8 4 4 9 5 2 3 1 8 6 6 8 7 8 9 10 9 9 10 11 11 13 8 7 10 14 10 9 9 11 14 14 17 6 9 11 14 14 12 12 14 13 14 20 17
5 6 3 2 4 3 1 1 0 3 5 7 5 2 3 5 9 8 6 4 6 6 7 9 8 9 11 11 10 11 10 7 8 11 13 12 10 10 11 13 17 15 12 13 13 14 14 12 12 12 13 12 11 11
6 6 9 7 3 2 4 3 6 7 6 5 3 5 8 10 15 12 9 8 9 9 7 8 9 9 10 11 10 9 10 9 10 10 9 10 9 9 12 11 12 23 15 14 13 12 12 11 12 13 13 13 12 10
4 3 5 4 2 3 7 8 7 7 5 5 7 13 13 12 14 13 13 11 7 2 7 10 11 6 7 7 6 7 7 7 9 17 20 14 12 8 5 6 7 7 8 9 17 19 17 14 13 12 12 10 10 9
5 3 3 3 7 8 9 9 7 7 4 6 5 10 13 15 16 10 9 8 7 10 10 9 8 3 8 8 10 11 5 6 7 9 12 14 10 6 6 7 8 8 8 10 11 12 19 15 14 11 10 8 7 8
2 3 1 3 7 8 12 8 7 6 4 9 10 11 18 15 15 10 8 7 8 7 5 6 5 2 4 5 3 5 9 4 4 7 9 9 9 8 8 9 9 9 9 10 10 10 10 10 9 9 9 10 10 11
2 6 5 4 6 5 4 3 4 5 7 7 11 7 8 2 4 4 3 4 5 5 6 3 4 5 4 4 5 6 13 7 7 6 9 8 9 9 10 9 9 8 8 10 10 10 10 11 9 9 9 11 9 8
2 2 1 3 5 6 4 2 3 5 3 3 4 2 2 3 5 4 3 1 3 3 3 4 4 6 8 8 8 7 11 7 11 19 20 20 21 18 11 7 8 10 11 10 9 9 10 9 8 9 9 8 6 5
Wind_Direction
256 241 238 241 247 261 266 273 278 275 272 275 300 322 334 357 4 46 305 13 57 265 272 224 221 204 76 144 164 187 79 258 95 174 180 225 206 229 207 168 179 172 162 200 185 215 259 156 105 179 212 227 229 262
354 289 256 257 259 262 267 283 287 280 269 249 245 276 294 328 336 53 128 19 26 221 262 290 261 255 212 199 149 192 191 163 186 151 233 212 239 212 186 237 137 220 198 184 193 212 271 207 217 223 207 225 261 227
18 21 9 357 327 313 312 314 313 321 284 234 222 233 270 277 268 197 201 108 62 307 285 333 268 282 209 207 192 161 268 200 196 178 178 219 226 137 192 235 202 232 203 232 121 225 245 238 265 255 246 251 255 201
13 16 15 8 1 341 336 340 335 349 351 34 29 272 277 281 282 199 182 210 140 200 275 280 307 300 273 167 188 219 284 6 61 81 195 207 198 169 230 252 184 204 317 265 265 280 282 266 263 287 303 234 219 229
358 357 360 3 3 3 358 345 332 327 315 313 297 256 253 268 261 255 230 212 192 145 258 291 306 265 229 207 219 204 206 195 186 273 227 224 238 267 229 246 254 241 254 258 269 275 271 284 292 292 281 273 267 232
320 325 321 330 336 341 347 356 350 329 336 4 342 307 277 267 265 155 285 42 202 170 258 269 264 287 18 95 157 186 201 198 203 183 210 222 222 193 243 262 243 236 230 246 266 279 277 285 299 299 285 284 251 214
306 310 320 327 311 315 325 331 336 336 339 341 333 314 273 273 209 215 221 172 3 163 225 270 269 255 158 88 59 56 292 227 188 218 225 227 193 204 251 256 251 272 275 273 274 287 289 286 284 291 295 305 306 273
305 290 283 296 300 299 278 287 296 309 321 318 298 298 299 290 288 299 265 236 156 236 246 247 250 286 150 144 172 116 155 13 228 245 228 202 220 209 250 258 245 247 257 262 267 263 266 288 347 0 348 10 12 342
306 306 291 269 272 299 301 276 270 269 273 284 307 309 270 198 230 245 159 161 231 199 249 225 213 239 156 119 103 151 169 228 222 230 215 167 188 226 237 227 249 256 240 262 275 243 20 51 46 32 26 17 23 5
300 300 300 295 267 253 266 290 292 274 274 275 224 275 253 211 217 201 105 199 189 198 234 248 189 249 124 157 181 207 193 221 237 215 160 222 250 263 270 259 267 293 299 280 207 46 50 42 30 12 19 342 297 272
295 293 291 294 289 277 253 249 257 258 272 227 231 229 239 171 236 201 234 197 178 223 196 217 202 218 204 158 195 204 210 215 240 231 187 224 254 256 352 62 58 82 79 76 95 103 74 25 308 278 278 271 266 259
285 291 288 281 282 285 278 264 252 202 187 179 311 304 320 192 218 231 223 237 199 222 204 190 187 180 214 171 178 222 229 199 244 147 220 255 253 97 95 83 63 54 41 21 357 334 287 265 261 259 269 293 282 272
277 280 284 284 274 271 273 270 261 235 207 100 219 208 164 259 211 207 216 246 234 184 161 147 139 127 131 192 228 212 226 228 128 204 228 229 308 124 119 82 107 186 200 213 233 251 264 269 261 249 272 271 268 271
273 276 278 282 287 272 267 269 257 248 152 202 196 214 194 225 231 207 182 193 244 45 58 98 105 217 285 241 234 244 241 147 233 233 235 311 51 99 90 230 239 233 232 248 261 274 272 269 272 260 253 261 271 274
272 269 269 270 273 278 268 261 275 219 202 216 212 220 212 220 233 213 167 90 260 131 64 327 261 223 259 253 230 300 330 260 222 231 181 206 208 206 227 245 233 247 270 257 256 257 262 261 260 270 267 265 265 268
276 273 266 263 260 268 275 270 188 225 205 201 230 236 202 102 282 300 185 208 217 141 71 172 242 80 250 183 90 229 136 231 257 230 228 213 233 242 248 255 250 265 270 266 257 245 250 259 258 261 268 252 258 255
271 254 252 251 251 258 260 176 172 227 243 199 203 199 172 161 195 204 158 209 170 147 196 148 172 219 340 255 255 186 209 240 241 279 266 245 264 277 280 276 273 265 266 268 262 260 256 258 264 267 264 270 269 262
255 262 268 244 242 250 303 113 221 231 258 265 258 217 177 220 193 239 211 198 164 205 166 220 151 212 214 192 261 252 261 270 271 274 275 277 282 279 270 267 269 270 269 268 262 260 261 263 259 259 259 264 270 266
240 232 256 238 241 111 180 211 186 247 229 214 196 189 189 208 219 202 214 228 223 215 130 123 233 212 223 221 254 261 261 258 265 274 275 277 273 272 272 271 269 268 263 260 265 263 262 257 259 267 266 265 259 267
265 270 256 244 149 189 239 213 173 203 237 236 6 200 192 203 201 202 219 203 170 154 219 208 225 246 249 252 253 258 263 270 277 279 279 280 280 278 272 271 275 278 276 274 274 272 266 267 263 261 254 250 258 260
289 275 299 171 162 197 259 202 183 204 214 221 262 146 233 8 206 213 228 158 94 197 230 224 242 252 252 252 257 264 268 267 268 270 277 282 282 279 282 280 277 280 275 272 265 267 274 270 271 272 265 265 259 259
193 158 104 150 219 200 222 214 173 207 182 238 14 120 343 280 246 236 155 121 213 226 210 240 245 252 258 260 260 258 261 265 266 269 277 281 280 278 275 274 275 269 268 265 264 267 272 272 272 267 263 262 267 266
113 125 172 188 210 193 240 163 171 189 208 212 181 208 256 249 227 60 192 217 235 235 242 242 248 255 255 263 271 269 264 266 270 271 270 268 268 269 269 269 266 266 266 266 269 268 267 270 272 274 273 272 269 270
133 193 228 208 158 218 129 204 216 189 185 168 175 254 270 226 74 78 226 243 248 257 257 258 251 261 267 259 256 259 263 261 262 265 262 261 267 270 269 268 270 264 261 275 272 269 268 268 271 271 268 267 265 262
134 237 182 230 173 120 173 172 201 184 235 203 192 263 255 120 176 210 222 248 250 256 258 261 253 243 248 258 265 265 262 253 255 261 262 264 265 270 272 276 278 273 279 271 271 275 275 278 274 272 270 266 266 268
194 234 183 186 215 155 184 183 209 214 192 210 225 248 49 111 132 241 223 236 245 238 244 240 242 252 254 240 254 263 264 256 232 248 266 271 258 260 275 282 286 285 261 265 276 279 275 271 271 274 274 272 274 278
206 225 219 201 154 141 220 3 36 166 206 210 236 218 148 209 237 239 239 239 239 229 234 236 230 236 247 262 258 258 264 254 224 254 274 278 272 267 265 268 273 276 289 288 283 280 279 275 272 268 269 270 264 264
204 167 176 188 200 180 176 205 201 214 229 221 133 191 208 204 259 267 259 262 248 261 246 245 233 235 247 256 265 275 277 275 274 271 270 267 261 261 261 261 262 266 264 262 265 268 267 267 271 269 264 263 267 260
212 202 124 181 168 195 206 206 216 224 202 163 237 261 261 260 271 274 279 281 278 202 259 270 270 243 254 261 258 258 263 267 276 280 283 285 291 284 261 277 285 289 285 280 278 275 279 279 279 278 272 269 266 262
248 164 141 153 173 219 230 190 227 241 222 228 243 274 277 274 272 282 279 281 273 269 271 267 273 267 276 284 288 286 266 248 247 256 277 286 297 328 319 306 296 294 292 288 288 287 292 295 292 289 288 282 276 273
145 93 49 202 225 240 249 260 255 255 240 258 251 248 261 276 289 291 266 289 292 292 298 289 285 264 266 288 289 305 298 287 311 313 302 297 298 298 295 290 286 283 281 279 279 280 280 286 284 285 286 285 284 288
165 197 178 239 264 292 342 220 236 239 260 251 268 250 277 277 269 297 335 3 24 26 9 18 335 311 280 265 269 261 274 290 294 295 295 283 279 276 276 275 274 271 272 273 276 275 275 275 280 283 285 285 281 279
24 32 349 322 315 304 301 15 312 299 321 286 281 1 291 197 236 272 288 169 166 208 288 298 290 291 294 294 285 293 306 291 295 311 310 307 304 303 304 296 278 270 272 276 277 276 278 280 280 286 287 284 287 303